Simultaneous Nadir Overpasses (SNOs) Predictions

Prediction of SNOs between GOES-16 and AQUA Satellite Orbit:

Table of predicted SNOs for the next 14.0 days since TLE Epoch: 1/14/2022
Index Date Time (GOES-16) GOES-16 Lat,Lon AQUA Lat,Lon Distance(km) Time Diff (sec)
1 01/15/2022 18:30:01 0.04, -75.19 0.46, -73.16 230.40 80
2 01/16/2022 06:51:17 -0.05, -75.19 0.60, -78.32 355.94 80
3 01/18/2022 06:39:05 -0.04, -75.18 -0.01, -75.35 19.24 80
4 01/20/2022 06:24:13 -0.04, -75.18 -0.63, -72.39 317.98 80
5 01/20/2022 18:45:37 0.04, -75.18 -0.47, -77.58 272.07 80
6 01/22/2022 18:36:05 0.04, -75.19 0.16, -74.61 66.08 80
7 01/24/2022 18:23:53 0.04, -75.21 0.81, -71.65 404.82 80
8 01/25/2022 06:45:08 -0.04, -75.22 0.32, -76.80 180.58 80
9 01/27/2022 06:30:16 -0.03, -75.23 -0.33, -73.84 158.47 80
10 01/27/2022 18:51:40 0.03, -75.23 -0.75, -79.03 431.47 80
